Upper Headwater Site ,,,,,
Kuparuk Headwater Basin,,,,,
2005 Meteorological Data,,,,,
"Lat:68 31' 19.8"" N     ",,,,,
"Long:149 20' 18.0"" W",,,,,
        ,,,,,
Col.    Data Type                               Units,,,,,
"1.      Day of Year                             days, Alaska Standard Time",,,,,
2.      Date Time                               Alaska Standard Time,,,,,
3.      1.5 meter air temperature       (C) ,,,,,
4.      2 meter wind speed              m/s,,,,,
5.      rainfall                                mm,,,,,
,,,,,
Note:   6999 denotes missing data,,,,,
        7777 denotes data not collected,,,,,
,,,,,
Day of Year,Date Time,Air Temperature,Wind Speed,Rainfall,,
(AST),(AST),(�C),(m/s),(mm),,
,,,,,,
1.04,1/1/2005 1:00,-14.4,0.4,7777,,
1.08,1/1/2005 2:00,-8.8,0.4,7777,,
1.13,1/1/2005 3:00,-9.6,0.4,7777,,
1.17,1/1/2005 4:00,-7.0,0.4,7777,,
1.21,1/1/2005 5:00,-5.6,0.4,7777,,
1.25,1/1/2005 6:00,-3.9,0.4,7777,,
1.29,1/1/2005 7:00,-3.2,0.4,7777,,
1.33,1/1/2005 8:00,-2.6,0.4,7777,,
1.38,1/1/2005 9:00,-2.5,0.4,7777,,
1.42,1/1/2005 10:00,-2.7,0.4,7777,,
1.46,1/1/2005 11:00,-3.2,0.4,7777,,
1.50,1/1/2005 12:00,-3.3,0.4,7777,,
1.54,1/1/2005 13:00,-3.6,0.4,7777,,
1.58,1/1/2005 14:00,-3.1,0.4,7777,
1.63,1/1/2005 15:00,-3.3,0.4,7777,
1.67,1/1/2005 16:00,-3.8,0.4,7777,
1.71,1/1/2005 17:00,-3.9,0.4,7777,
1.75,1/1/2005 18:00,-3.8,0.4,7777,
1.79,1/1/2005 19:00,-3.6,0.4,7777,
1.83,1/1/2005 20:00,-3.2,0.4,7777,
1.88,1/1/2005 21:00,-3.4,0.4,7777,
1.92,1/1/2005 22:00,-4.2,0.4,7777,
1.96,1/1/2005 23:00,-4.4,0.4,7777,
2.00,1/2/2005 0:00,-2.8,0.4,7777,
2.04,1/2/2005 1:00,-0.9,0.4,7777,
2.08,1/2/2005 2:00,-0.3,0.4,7777,
2.13,1/2/2005 3:00,-0.8,0.4,7777,
2.17,1/2/2005 4:00,-2.7,0.4,7777,
2.21,1/2/2005 5:00,-3.2,0.4,7777,
2.25,1/2/2005 6:00,-3.8,0.4,7777,
2.29,1/2/2005 7:00,-3.8,0.4,7777,
2.33,1/2/2005 8:00,-3.8,0.4,7777,
2.38,1/2/2005 9:00,-4.2,0.4,7777,
2.42,1/2/2005 10:00,-5.3,0.4,7777,
2.46,1/2/2005 11:00,-5.3,0.4,7777,
2.50,1/2/2005 12:00,-5.1,0.4,7777,
2.54,1/2/2005 13:00,-4.2,0.4,7777,
2.58,1/2/2005 14:00,-4.3,0.4,7777,
2.63,1/2/2005 15:00,-4.3,0.4,7777,
2.67,1/2/2005 16:00,-4.6,0.4,7777,
2.71,1/2/2005 17:00,-4.6,0.4,7777,
2.75,1/2/2005 18:00,-4.3,0.4,7777,
2.79,1/2/2005 19:00,-3.4,0.4,7777,
2.83,1/2/2005 20:00,-3.3,0.4,7777,
2.88,1/2/2005 21:00,-2.5,0.4,7777,
2.92,1/2/2005 22:00,-2.1,0.4,7777,
2.96,1/2/2005 23:00,-1.8,0.4,7777,
3.00,1/3/2005 0:00,-1.7,0.4,7777,
3.04,1/3/2005 1:00,-2.4,0.4,7777,
3.08,1/3/2005 2:00,-2.2,0.4,7777,
3.13,1/3/2005 3:00,-2.1,0.4,7777,
3.17,1/3/2005 4:00,-2.2,0.4,7777,
3.21,1/3/2005 5:00,-2.1,0.4,7777,
3.25,1/3/2005 6:00,-2.5,0.4,7777,
3.29,1/3/2005 7:00,-2.7,0.4,7777,
3.33,1/3/2005 8:00,-2.7,0.4,7777,
3.38,1/3/2005 9:00,-2.1,0.4,7777,
3.42,1/3/2005 10:00,-2.1,0.4,7777,
3.46,1/3/2005 11:00,-2.1,0.4,7777,
3.50,1/3/2005 12:00,-1.7,0.4,7777,
3.54,1/3/2005 13:00,-0.9,0.4,7777,
3.58,1/3/2005 14:00,-0.6,0.4,7777,
3.63,1/3/2005 15:00,-1.0,0.4,7777,
3.67,1/3/2005 16:00,-1.6,0.4,7777,
3.71,1/3/2005 17:00,-1.7,0.4,7777,
3.75,1/3/2005 18:00,-2.2,0.4,7777,
3.79,1/3/2005 19:00,-2.3,0.4,7777,
3.83,1/3/2005 20:00,-2.9,0.4,7777,
3.88,1/3/2005 21:00,-3.3,0.4,7777,
3.92,1/3/2005 22:00,-3.6,0.4,7777,
3.96,1/3/2005 23:00,-3.9,0.4,7777,
4.00,1/4/2005 0:00,-4.5,0.4,7777,
4.04,1/4/2005 1:00,-4.9,0.4,7777,
4.08,1/4/2005 2:00,-5.2,0.4,7777,
4.13,1/4/2005 3:00,-6.3,0.4,7777,
4.17,1/4/2005 4:00,-7.0,0.4,7777,
4.21,1/4/2005 5:00,-7.0,0.4,7777,
4.25,1/4/2005 6:00,-8.6,0.4,7777,
4.29,1/4/2005 7:00,-9.9,0.4,7777,
4.33,1/4/2005 8:00,-11.1,0.4,7777,
4.38,1/4/2005 9:00,-10.4,0.4,7777,
4.42,1/4/2005 10:00,-9.6,0.4,7777,
4.46,1/4/2005 11:00,-10.1,0.4,7777,
4.50,1/4/2005 12:00,-10.3,0.4,7777,
4.54,1/4/2005 13:00,-10.1,0.4,7777,
4.58,1/4/2005 14:00,-9.8,0.4,7777,
4.63,1/4/2005 15:00,-10.2,0.4,7777,
4.67,1/4/2005 16:00,-10.5,0.4,7777,
4.71,1/4/2005 17:00,-10.7,0.4,7777,
4.75,1/4/2005 18:00,-10.3,0.4,7777,
4.79,1/4/2005 19:00,-10.3,0.4,7777,
4.83,1/4/2005 20:00,-10.4,0.4,7777,
4.88,1/4/2005 21:00,-10.2,0.4,7777,
4.92,1/4/2005 22:00,-10.7,0.4,7777,
4.96,1/4/2005 23:00,-10.7,0.4,7777,
5.00,1/5/2005 0:00,-10.8,0.4,7777,
5.04,1/5/2005 1:00,-10.7,0.4,7777,
5.08,1/5/2005 2:00,-10.9,0.4,7777,
5.13,1/5/2005 3:00,-10.7,0.4,7777,
5.17,1/5/2005 4:00,-10.9,0.4,7777,
5.21,1/5/2005 5:00,-10.4,0.4,7777,
5.25,1/5/2005 6:00,-10.8,0.4,7777,
5.29,1/5/2005 7:00,-11.0,0.4,7777,
5.33,1/5/2005 8:00,-11.2,0.4,7777,
5.38,1/5/2005 9:00,-10.9,0.4,7777,
5.42,1/5/2005 10:00,-11.3,0.4,7777,
5.46,1/5/2005 11:00,-11.1,0.4,7777,
5.50,1/5/2005 12:00,-10.7,0.4,7777,
5.54,1/5/2005 13:00,-10.2,0.4,7777,
5.58,1/5/2005 14:00,-10.5,0.4,7777,
5.63,1/5/2005 15:00,-13.8,0.4,7777,
5.67,1/5/2005 16:00,-15.5,0.4,7777,
5.71,1/5/2005 17:00,-16.1,0.4,7777,
5.75,1/5/2005 18:00,-16.0,0.4,7777,
5.79,1/5/2005 19:00,-15.6,0.4,7777,
5.83,1/5/2005 20:00,-15.7,0.4,7777,
5.88,1/5/2005 21:00,-15.7,0.4,7777,
5.92,1/5/2005 22:00,-14.3,0.4,7777,
5.96,1/5/2005 23:00,-14.4,0.4,7777,
6.00,1/6/2005 0:00,-16.3,0.4,7777,
6.04,1/6/2005 1:00,-14.6,0.4,7777,
6.08,1/6/2005 2:00,-12.0,0.4,7777,
6.13,1/6/2005 3:00,-11.1,0.4,7777,
6.17,1/6/2005 4:00,-10.1,0.4,7777,
6.21,1/6/2005 5:00,-9.7,0.4,7777,
6.25,1/6/2005 6:00,-10.2,0.4,7777,
6.29,1/6/2005 7:00,-8.8,0.4,7777,
6.33,1/6/2005 8:00,-7.4,0.4,7777,
6.38,1/6/2005 9:00,-7.6,0.4,7777,
6.42,1/6/2005 10:00,-6.6,0.4,7777,
6.46,1/6/2005 11:00,-6.0,0.4,7777,
6.50,1/6/2005 12:00,-5.7,0.4,7777,
6.54,1/6/2005 13:00,-5.6,0.4,7777,
6.58,1/6/2005 14:00,-5.4,0.4,7777,
6.63,1/6/2005 15:00,-5.2,0.4,7777,
6.67,1/6/2005 16:00,-4.8,0.4,7777,
6.71,1/6/2005 17:00,-4.6,0.4,7777,
6.75,1/6/2005 18:00,-4.7,0.4,7777,
6.79,1/6/2005 19:00,-4.3,0.4,7777,
6.83,1/6/2005 20:00,-4.1,0.4,7777,
6.88,1/6/2005 21:00,-4.0,0.4,7777,
6.92,1/6/2005 22:00,-5.5,0.4,7777,
6.96,1/6/2005 23:00,-5.3,0.4,7777,
7.00,1/7/2005 0:00,-5.2,0.4,7777,
7.04,1/7/2005 1:00,-5.3,0.4,7777,
7.08,1/7/2005 2:00,-5.2,0.4,7777,
7.13,1/7/2005 3:00,-4.7,0.4,7777,
7.17,1/7/2005 4:00,-4.6,0.4,7777,
7.21,1/7/2005 5:00,-4.3,0.4,7777,
7.25,1/7/2005 6:00,-4.4,0.4,7777,
7.29,1/7/2005 7:00,-4.5,0.4,7777,
7.33,1/7/2005 8:00,-3.8,0.4,7777,
7.38,1/7/2005 9:00,-4.7,0.4,7777,
7.42,1/7/2005 10:00,-4.0,0.4,7777,
7.46,1/7/2005 11:00,-4.3,0.4,7777,
7.50,1/7/2005 12:00,-4.5,0.4,7777,
7.54,1/7/2005 13:00,-4.5,0.4,7777,
7.58,1/7/2005 14:00,-4.1,0.4,7777,
7.63,1/7/2005 15:00,-3.1,0.4,7777,
7.67,1/7/2005 16:00,-2.6,0.4,7777,
7.71,1/7/2005 17:00,-2.6,0.4,7777,
7.75,1/7/2005 18:00,-2.3,0.4,7777,
7.79,1/7/2005 19:00,-2.2,0.4,7777,
7.83,1/7/2005 20:00,-2.2,0.4,7777,
7.88,1/7/2005 21:00,-2.0,0.4,7777,
7.92,1/7/2005 22:00,-1.9,0.4,7777,
7.96,1/7/2005 23:00,-1.8,0.4,7777,
8.00,1/8/2005 0:00,-1.2,0.4,7777,
8.04,1/8/2005 1:00,-0.8,0.4,7777,
8.08,1/8/2005 2:00,-1.0,0.4,7777,
8.13,1/8/2005 3:00,-1.1,0.4,7777,
8.17,1/8/2005 4:00,-0.8,0.4,7777,
8.21,1/8/2005 5:00,-0.9,0.4,7777,
8.25,1/8/2005 6:00,-0.7,0.4,7777,
8.29,1/8/2005 7:00,-0.9,0.4,7777,
8.33,1/8/2005 8:00,-1.4,0.4,7777,
8.38,1/8/2005 9:00,-2.1,0.4,7777,
8.42,1/8/2005 10:00,-2.4,0.4,7777,
8.46,1/8/2005 11:00,-2.6,0.4,7777,
8.50,1/8/2005 12:00,-2.5,0.4,7777,
8.54,1/8/2005 13:00,-1.9,0.4,7777,
8.58,1/8/2005 14:00,-1.7,0.4,7777,
8.63,1/8/2005 15:00,-3.4,0.4,7777,
8.67,1/8/2005 16:00,-6.5,0.4,7777,
8.71,1/8/2005 17:00,-13.2,0.4,7777,
8.75,1/8/2005 18:00,-16.4,0.4,7777,
8.79,1/8/2005 19:00,-18.5,0.4,7777,
8.83,1/8/2005 20:00,-19.4,0.4,7777,
8.88,1/8/2005 21:00,-20.1,0.4,7777,
8.92,1/8/2005 22:00,-22.2,0.4,7777
8.96,1/8/2005 23:00,-24.4,0.4,7777
9.00,1/9/2005 0:00,-24.6,0.4,7777
9.04,1/9/2005 1:00,-24.8,0.4,7777
9.08,1/9/2005 2:00,-25.5,0.4,7777
9.13,1/9/2005 3:00,-25.4,0.4,7777
9.17,1/9/2005 4:00,-25.2,0.4,7777
9.21,1/9/2005 5:00,-25.7,0.4,7777
9.25,1/9/2005 6:00,-26.9,0.4,7777
9.29,1/9/2005 7:00,-26.2,0.4,7777
9.33,1/9/2005 8:00,-26.5,0.4,7777
9.38,1/9/2005 9:00,-26.9,0.4,7777
9.42,1/9/2005 10:00,-27.5,0.4,7777
9.46,1/9/2005 11:00,-28.1,0.4,7777
9.50,1/9/2005 12:00,-28.7,0.4,7777
9.54,1/9/2005 13:00,-29.6,0.4,7777
9.58,1/9/2005 14:00,-30.0,0.4,7777
9.63,1/9/2005 15:00,-30.5,0.4,7777
9.67,1/9/2005 16:00,-30.8,0.4,7777
9.71,1/9/2005 17:00,-31.2,0.4,7777
9.75,1/9/2005 18:00,-31.7,0.4,7777
9.79,1/9/2005 19:00,-32.2,0.4,7777
9.83,1/9/2005 20:00,-32.5,0.4,7777
9.88,1/9/2005 21:00,-32.7,0.4,7777
9.92,1/9/2005 22:00,-32.9,0.4,7777
9.96,1/9/2005 23:00,-32.9,0.4,7777
10.00,1/10/2005 0:00,-33.0,0.4,7777
10.04,1/10/2005 1:00,-33.2,0.4,7777
10.08,1/10/2005 2:00,-33.3,0.4,7777
10.13,1/10/2005 3:00,-33.6,0.4,7777
10.17,1/10/2005 4:00,-33.8,0.4,7777
10.21,1/10/2005 5:00,-33.8,0.4,7777
10.25,1/10/2005 6:00,-33.6,0.4,7777
10.29,1/10/2005 7:00,-33.0,0.4,7777
10.33,1/10/2005 8:00,-33.1,0.4,7777
10.38,1/10/2005 9:00,-33.9,0.4,7777
10.42,1/10/2005 10:00,-34.3,0.4,7777
10.46,1/10/2005 11:00,-34.1,0.4,7777
10.50,1/10/2005 12:00,-35.0,0.4,7777
10.54,1/10/2005 13:00,-35.5,0.4,7777
10.58,1/10/2005 14:00,-35.5,0.4,7777
10.63,1/10/2005 15:00,-35.4,0.4,7777
10.67,1/10/2005 16:00,-34.7,0.4,7777
10.71,1/10/2005 17:00,-34.4,0.4,7777
10.75,1/10/2005 18:00,-34.5,0.4,7777
10.79,1/10/2005 19:00,-34.2,0.4,7777
10.83,1/10/2005 20:00,-34.5,0.4,7777
10.88,1/10/2005 21:00,-35.6,0.4,7777
10.92,1/10/2005 22:00,-35.9,0.4,7777
10.96,1/10/2005 23:00,-35.7,0.4,7777
11.00,1/11/2005 0:00,-35.7,0.4,7777
11.04,1/11/2005 1:00,-35.4,0.4,7777
11.08,1/11/2005 2:00,-34.7,0.4,7777
11.13,1/11/2005 3:00,-34.1,0.4,7777
11.17,1/11/2005 4:00,-34.3,0.4,7777
11.21,1/11/2005 5:00,-32.6,0.4,7777
11.25,1/11/2005 6:00,-32.4,0.4,7777
11.29,1/11/2005 7:00,-31.5,0.4,7777
11.33,1/11/2005 8:00,-31.0,0.4,7777
11.38,1/11/2005 9:00,-30.9,0.4,7777
11.42,1/11/2005 10:00,-29.7,0.4,7777
11.46,1/11/2005 11:00,-30.3,0.4,7777
11.50,1/11/2005 12:00,-30.9,0.4,7777
11.54,1/11/2005 13:00,-32.0,0.4,7777
11.58,1/11/2005 14:00,-31.2,0.4,7777
11.63,1/11/2005 15:00,-30.7,0.4,7777
11.67,1/11/2005 16:00,-29.9,0.4,7777
11.71,1/11/2005 17:00,-29.8,0.4,7777
11.75,1/11/2005 18:00,-31.0,0.4,7777
11.79,1/11/2005 19:00,-31.1,0.4,7777
11.83,1/11/2005 20:00,-30.6,0.4,7777
11.88,1/11/2005 21:00,-29.7,0.4,7777
11.92,1/11/2005 22:00,-29.7,0.4,7777
11.96,1/11/2005 23:00,-28.4,0.4,7777
12.00,1/12/2005 0:00,-27.7,0.4,7777
12.04,1/12/2005 1:00,-27.6,0.4,7777
12.08,1/12/2005 2:00,-28.0,0.4,7777
12.13,1/12/2005 3:00,-28.0,0.4,7777
12.17,1/12/2005 4:00,-28.3,0.4,7777
12.21,1/12/2005 5:00,-27.7,0.4,7777
12.25,1/12/2005 6:00,-27.4,0.4,7777
12.29,1/12/2005 7:00,-27.6,0.4,7777
12.33,1/12/2005 8:00,-27.5,0.4,7777
12.38,1/12/2005 9:00,-27.6,0.4,7777
12.42,1/12/2005 10:00,-28.3,0.4,7777
12.46,1/12/2005 11:00,-29.4,0.4,7777
12.50,1/12/2005 12:00,-29.2,0.4,7777
12.54,1/12/2005 13:00,-30.1,0.4,7777
12.58,1/12/2005 14:00,-30.6,0.4,7777
12.63,1/12/2005 15:00,-29.8,0.4,7777
12.67,1/12/2005 16:00,-28.8,0.4,7777
12.71,1/12/2005 17:00,-28.5,0.4,7777
12.75,1/12/2005 18:00,-29.4,0.4,7777
12.79,1/12/2005 19:00,-30.9,0.4,7777
12.83,1/12/2005 20:00,-30.5,0.4,7777
12.88,1/12/2005 21:00,-32.4,0.4,7777
12.92,1/12/2005 22:00,-31.4,0.4,7777
12.96,1/12/2005 23:00,-32.0,0.4,7777
13.00,1/13/2005 0:00,-33.3,0.4,7777
13.04,1/13/2005 1:00,-32.3,0.4,7777
13.08,1/13/2005 2:00,-32.6,0.4,7777
13.13,1/13/2005 3:00,-33.2,0.4,7777
13.17,1/13/2005 4:00,-33.5,0.4,7777
13.21,1/13/2005 5:00,-30.3,0.4,7777
13.25,1/13/2005 6:00,-31.1,0.4,7777
13.29,1/13/2005 7:00,-28.4,0.4,7777
13.33,1/13/2005 8:00,-24.8,0.4,7777
13.38,1/13/2005 9:00,-27.0,0.4,7777
13.42,1/13/2005 10:00,-26.6,0.4,7777
13.46,1/13/2005 11:00,-22.6,0.4,7777
13.50,1/13/2005 12:00,-23.0,0.4,7777
13.54,1/13/2005 13:00,-23.4,0.4,7777
13.58,1/13/2005 14:00,-21.7,0.4,7777
13.63,1/13/2005 15:00,-21.8,0.4,7777
13.67,1/13/2005 16:00,-21.2,0.4,7777
13.71,1/13/2005 17:00,-22.9,0.4,7777
13.75,1/13/2005 18:00,-24.7,0.4,7777
13.79,1/13/2005 19:00,-24.7,0.4,7777
13.83,1/13/2005 20:00,-25.3,0.4,7777
13.88,1/13/2005 21:00,-24.9,0.4,7777
13.92,1/13/2005 22:00,-28.7,0.4,7777
13.96,1/13/2005 23:00,-28.0,0.4,7777
14.00,1/14/2005 0:00,-26.7,0.4,7777
14.04,1/14/2005 1:00,-25.9,0.4,7777
14.08,1/14/2005 2:00,-27.0,0.4,7777
14.13,1/14/2005 3:00,-29.3,0.4,7777
14.17,1/14/2005 4:00,-30.0,0.4,7777
14.21,1/14/2005 5:00,-30.7,0.4,7777
14.25,1/14/2005 6:00,-29.9,0.4,7777
14.29,1/14/2005 7:00,-29.9,0.4,7777
14.33,1/14/2005 8:00,-31.7,0.4,7777
14.38,1/14/2005 9:00,-31.1,0.4,7777
14.42,1/14/2005 10:00,-30.7,0.4,7777
14.46,1/14/2005 11:00,-30.1,0.4,7777
14.50,1/14/2005 12:00,-32.4,0.4,7777
14.54,1/14/2005 13:00,-32.1,0.4,7777
14.58,1/14/2005 14:00,-30.8,0.4,7777
14.63,1/14/2005 15:00,-30.6,0.4,7777
14.67,1/14/2005 16:00,-31.4,0.4,7777
14.71,1/14/2005 17:00,-29.6,0.4,7777
14.75,1/14/2005 18:00,-31.7,0.4,7777
14.79,1/14/2005 19:00,-32.6,0.4,7777
14.83,1/14/2005 20:00,-30.2,0.4,7777
14.88,1/14/2005 21:00,-31.5,0.4,7777
14.92,1/14/2005 22:00,-31.7,0.4,7777
14.96,1/14/2005 23:00,-32.6,0.4,7777
15.00,1/15/2005 0:00,-32.9,0.4,7777
15.04,1/15/2005 1:00,-32.3,0.4,7777
15.08,1/15/2005 2:00,-31.6,0.4,7777
15.13,1/15/2005 3:00,-32.8,0.4,7777
15.17,1/15/2005 4:00,-33.1,0.4,7777
15.21,1/15/2005 5:00,-30.9,0.4,7777
15.25,1/15/2005 6:00,-32.2,0.4,7777
15.29,1/15/2005 7:00,-30.3,0.4,7777
15.33,1/15/2005 8:00,-29.9,0.4,7777
15.38,1/15/2005 9:00,-30.0,0.4,7777
15.42,1/15/2005 10:00,-29.8,0.4,7777
15.46,1/15/2005 11:00,-30.0,0.4,7777
15.50,1/15/2005 12:00,-31.0,0.4,7777
15.54,1/15/2005 13:00,-32.5,0.4,7777
15.58,1/15/2005 14:00,-31.6,0.4,7777
15.63,1/15/2005 15:00,-31.2,0.4,7777
15.67,1/15/2005 16:00,-33.8,0.4,7777
15.71,1/15/2005 17:00,-34.2,0.4,7777
15.75,1/15/2005 18:00,-34.3,0.4,7777
15.79,1/15/2005 19:00,-35.5,0.4,7777
15.83,1/15/2005 20:00,-36.1,0.4,7777
15.88,1/15/2005 21:00,-36.8,0.4,7777
15.92,1/15/2005 22:00,-36.8,0.4,7777
15.96,1/15/2005 23:00,-37.1,0.4,7777
16.00,1/16/2005 0:00,-38.1,0.4,7777
16.04,1/16/2005 1:00,-37.5,0.4,7777
16.08,1/16/2005 2:00,-38.3,0.4,7777
16.13,1/16/2005 3:00,-38.3,0.4,7777
16.17,1/16/2005 4:00,-37.7,0.4,7777
16.21,1/16/2005 5:00,-37.7,0.4,7777
16.25,1/16/2005 6:00,-37.0,0.4,7777
16.29,1/16/2005 7:00,-37.3,0.4,7777
16.33,1/16/2005 8:00,-38.1,0.4,7777
16.38,1/16/2005 9:00,-37.6,0.4,7777
16.42,1/16/2005 10:00,-36.9,0.4,7777
16.46,1/16/2005 11:00,-36.5,0.4,7777
16.50,1/16/2005 12:00,-36.9,0.4,7777
16.54,1/16/2005 13:00,-36.1,0.4,7777
16.58,1/16/2005 14:00,-36.1,0.4,7777
16.63,1/16/2005 15:00,-34.7,0.4,7777
16.67,1/16/2005 16:00,-35.0,0.4,7777
16.71,1/16/2005 17:00,-34.3,0.4,7777
16.75,1/16/2005 18:00,-33.5,0.4,7777
16.79,1/16/2005 19:00,-28.3,0.4,7777
16.83,1/16/2005 20:00,-22.1,0.4,7777
16.88,1/16/2005 21:00,-21.0,0.4,7777
16.92,1/16/2005 22:00,-20.8,0.4,7777
16.96,1/16/2005 23:00,-20.3,0.4,7777
17.00,1/17/2005 0:00,-19.5,0.4,7777
17.04,1/17/2005 1:00,-19.7,0.4,7777
17.08,1/17/2005 2:00,-19.8,0.4,7777
17.13,1/17/2005 3:00,-19.5,0.4,7777
17.17,1/17/2005 4:00,-19.6,0.4,7777
17.21,1/17/2005 5:00,-19.5,0.4,7777
17.25,1/17/2005 6:00,-19.3,0.4,7777
17.29,1/17/2005 7:00,-19.0,0.4,7777
17.33,1/17/2005 8:00,-18.7,0.4,7777
17.38,1/17/2005 9:00,-18.5,0.4,7777
17.42,1/17/2005 10:00,-18.3,0.4,7777
17.46,1/17/2005 11:00,-17.6,0.4,7777
17.50,1/17/2005 12:00,-17.6,0.4,7777
17.54,1/17/2005 13:00,-17.4,0.4,7777
17.58,1/17/2005 14:00,-17.1,0.4,7777
17.63,1/17/2005 15:00,-17.3,0.4,7777
17.67,1/17/2005 16:00,-17.1,0.4,7777
17.71,1/17/2005 17:00,-16.1,0.4,7777
17.75,1/17/2005 18:00,-16.4,0.4,7777
17.79,1/17/2005 19:00,-16.2,0.4,7777
17.83,1/17/2005 20:00,-15.4,0.4,7777
17.88,1/17/2005 21:00,-16.4,0.4,7777
17.92,1/17/2005 22:00,-16.3,0.4,7777
17.96,1/17/2005 23:00,-16.2,0.4,7777
18.00,1/18/2005 0:00,-16.3,0.4,7777
18.04,1/18/2005 1:00,-15.7,0.4,7777
18.08,1/18/2005 2:00,-15.2,0.4,7777
18.13,1/18/2005 3:00,-15.2,0.4,7777
18.17,1/18/2005 4:00,-15.2,0.4,7777
18.21,1/18/2005 5:00,-15.1,0.4,7777
18.25,1/18/2005 6:00,-14.9,0.4,7777
18.29,1/18/2005 7:00,-14.8,0.4,7777
18.33,1/18/2005 8:00,-15.1,0.4,7777
18.38,1/18/2005 9:00,-15.1,0.4,7777
18.42,1/18/2005 10:00,-14.9,0.4,7777
18.46,1/18/2005 11:00,-14.5,0.4,7777
18.50,1/18/2005 12:00,-14.3,0.4,7777
18.54,1/18/2005 13:00,-14.3,0.4,7777
18.58,1/18/2005 14:00,-14.2,0.4,7777
18.63,1/18/2005 15:00,-13.8,0.4,7777
18.67,1/18/2005 16:00,-13.8,0.4,7777
18.71,1/18/2005 17:00,-13.4,0.4,7777
18.75,1/18/2005 18:00,-13.6,0.4,7777
18.79,1/18/2005 19:00,-13.8,0.4,7777
18.83,1/18/2005 20:00,-13.7,0.4,7777
18.88,1/18/2005 21:00,-13.3,0.4,7777
18.92,1/18/2005 22:00,-13.8,0.4,7777
18.96,1/18/2005 23:00,-13.7,0.4,7777
19.00,1/19/2005 0:00,-13.4,0.4,7777
19.04,1/19/2005 1:00,-12.9,0.4,7777
19.08,1/19/2005 2:00,-12.6,0.4,7777
19.13,1/19/2005 3:00,-12.8,0.4,7777
19.17,1/19/2005 4:00,-13.7,0.4,7777
19.21,1/19/2005 5:00,-13.2,0.4,7777
19.25,1/19/2005 6:00,-14.6,0.4,7777
19.29,1/19/2005 7:00,-15.4,0.4,7777
19.33,1/19/2005 8:00,-15.5,0.4,7777
19.38,1/19/2005 9:00,-15.2,0.4,7777
19.42,1/19/2005 10:00,-15.2,0.4,7777
19.46,1/19/2005 11:00,-14.9,0.4,7777
19.50,1/19/2005 12:00,-13.0,0.4,7777
19.54,1/19/2005 13:00,-12.3,0.4,7777
19.58,1/19/2005 14:00,-11.7,0.4,7777
19.63,1/19/2005 15:00,-11.7,0.4,7777
19.67,1/19/2005 16:00,-11.0,0.4,7777
19.71,1/19/2005 17:00,-9.9,0.4,7777
19.75,1/19/2005 18:00,-11.8,0.4,7777
19.79,1/19/2005 19:00,-11.4,0.4,7777
19.83,1/19/2005 20:00,-11.8,0.4,7777
19.88,1/19/2005 21:00,-9.8,0.4,7777
19.92,1/19/2005 22:00,-11.4,0.4,7777
19.96,1/19/2005 23:00,-9.7,0.4,7777
20.00,1/20/2005 0:00,-9.8,0.4,7777
20.04,1/20/2005 1:00,-7.9,0.4,7777
20.08,1/20/2005 2:00,-8.6,0.4,7777
20.13,1/20/2005 3:00,-7.7,0.4,7777
20.17,1/20/2005 4:00,-7.4,0.4,7777
20.21,1/20/2005 5:00,-7.0,0.4,7777
20.25,1/20/2005 6:00,-6.9,0.4,7777
20.29,1/20/2005 7:00,-6.7,0.4,7777
20.33,1/20/2005 8:00,-6.6,0.4,7777
20.38,1/20/2005 9:00,-6.3,0.4,7777
20.42,1/20/2005 10:00,-6.3,0.4,7777
20.46,1/20/2005 11:00,-5.9,0.4,7777
20.50,1/20/2005 12:00,-6.4,0.4,7777
20.54,1/20/2005 13:00,-6.4,0.4,7777
20.58,1/20/2005 14:00,-6.4,0.4,7777
20.63,1/20/2005 15:00,-6.1,0.4,7777
20.67,1/20/2005 16:00,-6.1,0.4,7777
20.71,1/20/2005 17:00,-7.0,0.4,7777
20.75,1/20/2005 18:00,-7.4,0.4,7777
20.79,1/20/2005 19:00,-6.9,0.4,7777
20.83,1/20/2005 20:00,-6.3,0.4,7777
20.88,1/20/2005 21:00,-5.4,0.4,7777
20.92,1/20/2005 22:00,-5.9,0.4,7777
20.96,1/20/2005 23:00,-5.0,0.4,7777
21.00,1/21/2005 0:00,-4.5,0.4,7777
21.04,1/21/2005 1:00,-4.2,0.4,7777
21.08,1/21/2005 2:00,-5.0,0.4,7777
21.13,1/21/2005 3:00,-4.4,0.4,7777
21.17,1/21/2005 4:00,-4.7,0.4,7777
21.21,1/21/2005 5:00,-3.6,0.4,7777
21.25,1/21/2005 6:00,-3.8,0.4,7777
21.29,1/21/2005 7:00,-3.4,0.4,7777
21.33,1/21/2005 8:00,-3.1,0.4,7777
21.38,1/21/2005 9:00,-2.7,0.4,7777
21.42,1/21/2005 10:00,-2.4,0.4,7777
21.46,1/21/2005 11:00,-2.4,0.4,7777
21.50,1/21/2005 12:00,-2.4,0.4,7777
21.54,1/21/2005 13:00,-1.9,0.4,7777
21.58,1/21/2005 14:00,-2.1,0.4,7777
21.63,1/21/2005 15:00,-2.5,0.4,7777
21.67,1/21/2005 16:00,-5.3,0.4,7777
21.71,1/21/2005 17:00,-6.3,0.4,7777
21.75,1/21/2005 18:00,-9.5,0.4,7777
21.79,1/21/2005 19:00,-11.8,0.4,7777
21.83,1/21/2005 20:00,-12.5,0.4,7777
21.88,1/21/2005 21:00,-11.9,0.4,7777
21.92,1/21/2005 22:00,-13.4,0.4,7777
21.96,1/21/2005 23:00,-11.8,0.4,7777
22.00,1/22/2005 0:00,-9.8,0.4,7777
22.04,1/22/2005 1:00,-6.7,0.4,7777
22.08,1/22/2005 2:00,-7.4,0.4,7777
22.13,1/22/2005 3:00,-10.0,0.4,7777
22.17,1/22/2005 4:00,-7.1,0.4,7777
22.21,1/22/2005 5:00,-10.7,0.4,7777
22.25,1/22/2005 6:00,-12.5,0.4,7777
22.29,1/22/2005 7:00,-11.5,0.4,7777
22.33,1/22/2005 8:00,-10.6,0.4,7777
22.38,1/22/2005 9:00,-9.2,0.4,7777
22.42,1/22/2005 10:00,-8.4,0.4,7777
22.46,1/22/2005 11:00,-7.9,0.4,7777
22.50,1/22/2005 12:00,-6.5,0.4,7777
22.54,1/22/2005 13:00,-5.0,0.4,7777
22.58,1/22/2005 14:00,-3.6,0.4,7777
22.63,1/22/2005 15:00,-5.3,0.4,7777
22.67,1/22/2005 16:00,-5.9,0.4,7777
22.71,1/22/2005 17:00,-5.7,0.4,7777
22.75,1/22/2005 18:00,-3.9,0.4,7777
22.79,1/22/2005 19:00,-5.2,0.4,7777
22.83,1/22/2005 20:00,-4.4,0.4,7777
22.88,1/22/2005 21:00,-4.5,0.4,7777
22.92,1/22/2005 22:00,-3.8,0.4,7777
22.96,1/22/2005 23:00,-3.3,0.4,7777
23.00,1/23/2005 0:00,-3.6,0.4,7777
23.04,1/23/2005 1:00,-3.5,0.4,7777
23.08,1/23/2005 2:00,-3.7,0.4,7777
23.13,1/23/2005 3:00,-3.7,0.4,7777
23.17,1/23/2005 4:00,-5.2,0.4,7777
23.21,1/23/2005 5:00,-4.6,0.4,7777
23.25,1/23/2005 6:00,-6.2,0.4,7777
23.29,1/23/2005 7:00,-6.3,0.4,7777
23.33,1/23/2005 8:00,-7.7,0.4,7777
23.38,1/23/2005 9:00,-10.2,0.4,7777
23.42,1/23/2005 10:00,-8.2,0.4,7777
23.46,1/23/2005 11:00,-8.5,0.4,7777
23.50,1/23/2005 12:00,-7.9,0.4,7777
23.54,1/23/2005 13:00,-8.1,0.4,7777
23.58,1/23/2005 14:00,-9.7,0.4,7777
23.63,1/23/2005 15:00,-9.3,0.4,7777
23.67,1/23/2005 16:00,-8.6,0.4,7777
23.71,1/23/2005 17:00,-9.4,0.4,7777
23.75,1/23/2005 18:00,-9.7,0.4,7777
23.79,1/23/2005 19:00,-11.2,0.4,7777
23.83,1/23/2005 20:00,-13.7,0.4,7777
23.88,1/23/2005 21:00,-15.3,0.4,7777
23.92,1/23/2005 22:00,-16.2,0.4,7777
23.96,1/23/2005 23:00,-17.1,0.4,7777
24.00,1/24/2005 0:00,-19.0,0.4,7777
24.04,1/24/2005 1:00,-21.5,0.4,7777
24.08,1/24/2005 2:00,-23.5,0.4,7777
24.13,1/24/2005 3:00,-22.9,0.4,7777
24.17,1/24/2005 4:00,-23.2,0.4,7777
24.21,1/24/2005 5:00,-24.0,0.4,7777
24.25,1/24/2005 6:00,-23.9,0.4,7777
24.29,1/24/2005 7:00,-25.0,0.4,7777
24.33,1/24/2005 8:00,-26.9,0.4,7777
24.38,1/24/2005 9:00,-25.0,0.4,7777
24.42,1/24/2005 10:00,-23.4,0.4,7777
24.46,1/24/2005 11:00,-23.2,0.4,7777
24.50,1/24/2005 12:00,-22.0,0.4,7777
24.54,1/24/2005 13:00,-22.0,0.4,7777
24.58,1/24/2005 14:00,-21.7,0.4,7777
24.63,1/24/2005 15:00,-20.9,0.4,7777
24.67,1/24/2005 16:00,-21.1,0.4,7777
24.71,1/24/2005 17:00,-21.4,0.4,7777
24.75,1/24/2005 18:00,-20.6,0.4,7777
24.79,1/24/2005 19:00,-17.2,0.4,7777
24.83,1/24/2005 20:00,-19.3,0.4,7777
24.88,1/24/2005 21:00,-19.6,0.4,7777
24.92,1/24/2005 22:00,-15.3,0.4,7777
24.96,1/24/2005 23:00,-18.1,0.4,7777
25.00,1/25/2005 0:00,-19.1,0.4,7777
25.04,1/25/2005 1:00,-12.2,0.4,7777
25.08,1/25/2005 2:00,-10.1,0.4,7777
25.13,1/25/2005 3:00,-10.7,0.4,7777
25.17,1/25/2005 4:00,-10.2,0.4,7777
25.21,1/25/2005 5:00,-12.7,0.4,7777
25.25,1/25/2005 6:00,-15.2,0.4,7777
25.29,1/25/2005 7:00,-11.1,0.4,7777
25.33,1/25/2005 8:00,-11.3,0.4,7777
25.38,1/25/2005 9:00,-17.8,0.4,7777
25.42,1/25/2005 10:00,-14.5,0.4,7777
25.46,1/25/2005 11:00,-15.7,0.4,7777
25.50,1/25/2005 12:00,-13.5,0.4,7777
25.54,1/25/2005 13:00,-15.1,0.4,7777
25.58,1/25/2005 14:00,-17.9,0.4,7777
25.63,1/25/2005 15:00,-17.9,0.4,7777
25.67,1/25/2005 16:00,-21.6,0.4,7777
25.71,1/25/2005 17:00,-21.9,0.4,7777
25.75,1/25/2005 18:00,-19.9,0.4,7777
25.79,1/25/2005 19:00,-19.3,0.4,7777
25.83,1/25/2005 20:00,-22.6,0.4,7777
25.88,1/25/2005 21:00,-20.3,0.4,7777
25.92,1/25/2005 22:00,-20.0,0.4,7777
25.96,1/25/2005 23:00,-19.3,0.4,7777
26.00,1/26/2005 0:00,-20.0,0.4,7777
26.04,1/26/2005 1:00,-20.1,0.4,7777
26.08,1/26/2005 2:00,-20.5,0.4,7777
26.13,1/26/2005 3:00,-21.2,0.4,7777
26.17,1/26/2005 4:00,-20.0,0.4,7777
26.21,1/26/2005 5:00,-19.6,0.4,7777
26.25,1/26/2005 6:00,-21.6,0.4,7777
26.29,1/26/2005 7:00,-22.7,0.4,7777
26.33,1/26/2005 8:00,-23.8,0.4,7777
26.38,1/26/2005 9:00,-24.7,0.4,7777
26.42,1/26/2005 10:00,-27.1,0.4,7777
26.46,1/26/2005 11:00,-27.5,0.4,7777
26.50,1/26/2005 12:00,-27.8,0.4,7777
26.54,1/26/2005 13:00,-30.7,0.4,7777
26.58,1/26/2005 14:00,-30.5,0.4,7777
26.63,1/26/2005 15:00,-30.2,0.4,7777
26.67,1/26/2005 16:00,-28.7,0.4,7777
26.71,1/26/2005 17:00,-29.8,0.4,7777
26.75,1/26/2005 18:00,-31.1,0.4,7777
26.79,1/26/2005 19:00,-31.1,0.4,7777
26.83,1/26/2005 20:00,-31.7,0.4,7777
26.88,1/26/2005 21:00,-31.3,0.4,7777
26.92,1/26/2005 22:00,-30.2,0.4,7777
26.96,1/26/2005 23:00,-32.2,0.4,7777
27.00,1/27/2005 0:00,-31.3,0.4,7777
27.04,1/27/2005 1:00,-32.1,0.4,7777
27.08,1/27/2005 2:00,-32.6,0.4,7777
27.13,1/27/2005 3:00,-32.9,0.4,7777
27.17,1/27/2005 4:00,-32.8,0.4,7777
27.21,1/27/2005 5:00,-32.8,0.4,7777
27.25,1/27/2005 6:00,-32.2,0.4,7777